Litchfield, IL

12:41 PM CDT on May 26, 2017 (GMT -0500)
Litchfield

Weather History for K3LF - January, 2014

Change the Weather History Date:

Sunday, January 26, 2014

  Actual Average (KALN) Record (KALN)
Temperature  
Mean Temperature 36 °F -  
Max Temperature 51 °F 36 °F 60 °F (2002)
Min Temperature 19 °F 22 °F 8 °F (2003)
Degree Days  
Heating Degree Days 30    
Moisture  
Dew Point 21 °F    
Average Humidity 56    
Maximum Humidity 84    
Minimum Humidity 41    
Precipitation  
Precipitation 0.00 in - - ()
Sea Level Pressure  
Sea Level Pressure 29.66 in    
Wind  
Wind Speed 15 mph (WSW)    
Max Wind Speed 38 mph    
Max Gust Speed 48 mph    
Visibility 10 miles    
Events      
Averages and records for this station are not official NWS values.
T = Trace of Precipitation, MM = Missing Value Source: NWS Daily Summary

Daily Weather History Graph

Daily Weather History Graph

Search for Another Location

Airport or City:

Trip Planner

Search our weather history database for the weather conditions in past years. The results will help you decide how hot, cold, wet, or windy it might be!

Date:

Astronomy

Jan. 26, 2014 Rise Set
Actual Time 7:10 AM CST 5:12 PM CST
Civil Twilight 6:41 AM CST 5:41 PM CST
Nautical Twilight 6:09 AM CST 6:13 PM CST
Astronomical Twilight 5:37 AM CST 6:45 PM CST
Moon 2:47 AM CST 1:02 PM CST
Length of Visible Light 10h 59m
Length of Day
10h 02m
Waning Crescent, 23% of the Moon is Illuminated
Jan 26
Waning Crescent
Jan 30
New
Feb 6
First Quarter
Feb 14
Full
Feb 22
Last Quarter

Hourly Weather History & Observations

Time (CST) Temp. Windchill Dew Point Humidity Pressure Visibility Wind Dir Wind Speed Gust Speed Precip Events Conditions
12:15 AM 22.5 °F 14.1 °F 9.1 °F 57% 29.88 in 10.0 mi SSE 6.9 mph - N/A   Overcast
12:35 AM 22.6 °F 14.3 °F 9.3 °F 57% 29.87 in 10.0 mi SSE 6.9 mph - N/A   Overcast
12:55 AM 23.0 °F 13.9 °F 9.5 °F 56% 29.85 in 10.0 mi South 8.1 mph - N/A   Overcast
1:15 AM 23.0 °F 13.1 °F 9.3 °F 56% 29.83 in 10.0 mi SSE 9.2 mph - N/A   Overcast
1:35 AM 23.4 °F 12.8 °F 9.3 °F 55% 29.80 in 10.0 mi SSE 10.4 mph - N/A   Overcast
1:55 AM 23.5 °F 11.8 °F 8.6 °F 53% 29.77 in 10.0 mi SSE 12.7 mph - N/A   Scattered Clouds
2:15 AM 23.9 °F 10.3 °F 8.2 °F 51% 29.74 in 10.0 mi SSE 17.3 mph - N/A   Mostly Cloudy
2:35 AM 24.4 °F 9.9 °F 7.5 °F 49% 29.71 in 10.0 mi SSE 20.7 mph - N/A   Mostly Cloudy
2:55 AM 24.8 °F 10.7 °F 6.6 °F 46% 29.69 in 10.0 mi SSE 19.6 mph 26.5 mph N/A   Overcast
3:15 AM 25.2 °F 11.2 °F 7.5 °F 47% 29.68 in 10.0 mi South 19.6 mph 25.3 mph N/A   Overcast
3:35 AM 25.5 °F 11.6 °F 8.6 °F 49% 29.66 in 10.0 mi South 19.6 mph 26.5 mph N/A   Overcast
3:55 AM 25.7 °F 12.3 °F 8.8 °F 49% 29.63 in 10.0 mi South 18.4 mph 24.2 mph N/A   Overcast
4:15 AM 26.4 °F 12.5 °F 8.6 °F 47% 29.62 in 10.0 mi South 20.7 mph 25.3 mph N/A   Overcast
4:35 AM 27.0 °F 12.8 °F 8.6 °F 46% 29.60 in 10.0 mi South 21.9 mph 29.9 mph N/A   Overcast
4:55 AM 27.5 °F 12.6 °F 8.4 °F 45% 29.59 in 10.0 mi South 25.3 mph 29.9 mph N/A   Overcast
5:15 AM 27.5 °F 12.6 °F 8.6 °F 45% 29.57 in 10.0 mi South 25.3 mph 32.2 mph N/A   Overcast
5:35 AM 28.0 °F 15.7 °F 8.8 °F 44% 29.59 in 10.0 mi SSW 17.3 mph - N/A   Overcast
5:55 AM 29.1 °F 16.4 °F 8.1 °F 41% 29.59 in 10.0 mi South 19.6 mph 29.9 mph N/A   Mostly Cloudy
6:15 AM 29.1 °F 16.7 °F 7.7 °F 41% 29.60 in 10.0 mi South 18.4 mph 26.5 mph N/A   Clear
6:35 AM 29.1 °F 17.1 °F 7.9 °F 41% 29.59 in 10.0 mi South 17.3 mph - N/A   Scattered Clouds
6:55 AM 29.3 °F 18.2 °F 9.1 °F 43% 29.59 in 10.0 mi South 15.0 mph - N/A   Mostly Cloudy
7:15 AM 30.0 °F 19.1 °F 10.2 °F 44% 29.59 in 10.0 mi SSW 15.0 mph - N/A   Overcast
7:35 AM 30.0 °F 19.5 °F 10.9 °F 45% 29.61 in 10.0 mi SSW 13.8 mph - N/A   Mostly Cloudy
7:55 AM 30.2 °F 20.8 °F 12.4 °F 48% 29.61 in 10.0 mi SSW 11.5 mph - N/A   Mostly Cloudy
8:15 AM 31.6 °F 22.1 °F 13.6 °F 47% 29.61 in 10.0 mi SSW 12.7 mph - N/A   Scattered Clouds
8:35 AM 33.3 °F 24.6 °F 15.4 °F 48% 29.61 in 10.0 mi SSW 11.5 mph - N/A   Clear
8:55 AM 35.2 °F 27.1 °F 17.8 °F 49% 29.61 in 10.0 mi SSW 11.5 mph - N/A   Clear
9:15 AM 37.6 °F 29.1 °F 20.1 °F 49% 29.60 in 10.0 mi South 13.8 mph - N/A   Clear
9:35 AM 41.2 °F 33.7 °F 24.6 °F 52% 29.60 in 10.0 mi SW 13.8 mph - N/A   Clear
9:55 AM 42.6 °F 35.6 °F 25.9 °F 52% 29.60 in 10.0 mi SW 13.8 mph 18.4 mph N/A   Clear
10:15 AM 44.8 °F 39.0 °F 27.7 °F 51% 29.60 in 10.0 mi WSW 11.5 mph - N/A   Clear
10:35 AM 46.4 °F 40.1 °F 29.3 °F 51% 29.61 in 10.0 mi WSW 15.0 mph - N/A   Clear
10:55 AM 48.7 °F - 31.5 °F 51% 29.61 in 10.0 mi West 17.3 mph 25.3 mph N/A   Clear
11:15 AM 49.3 °F - 32.2 °F 52% 29.61 in 10.0 mi West 19.6 mph 24.2 mph N/A   Scattered Clouds
11:35 AM 49.6 °F - 32.2 °F 51% 29.60 in 10.0 mi West 19.6 mph 27.6 mph N/A   Clear
11:55 AM 50.2 °F - 32.5 °F 51% 29.59 in 10.0 mi West 18.4 mph - N/A   Clear
12:15 PM 50.9 °F - 32.4 °F 49% 29.58 in 10.0 mi West 18.4 mph 26.5 mph N/A   Clear
12:35 PM 50.7 °F - 32.5 °F 50% 29.57 in 10.0 mi West 17.3 mph - N/A   Clear
12:55 PM 50.7 °F - 32.4 °F 49% 29.57 in 10.0 mi West 21.9 mph 25.3 mph N/A   Clear
1:15 PM 50.7 °F - 32.4 °F 49% 29.56 in 10.0 mi West 18.4 mph 26.5 mph N/A   Clear
1:35 PM 51.1 °F - 33.1 °F 50% 29.56 in 10.0 mi WNW 15.0 mph - N/A   Clear
1:55 PM 51.3 °F - 33.3 °F 50% 29.56 in 10.0 mi West 12.7 mph 18.4 mph N/A   Clear
2:15 PM 50.0 °F - 32.7 °F 52% 29.57 in 10.0 mi WNW 12.7 mph - N/A   Clear
2:35 PM 50.4 °F - 32.4 °F 50% 29.57 in 10.0 mi NW 10.4 mph - N/A   Scattered Clouds
2:55 PM 49.8 °F - 32.9 °F 52% 29.58 in 10.0 mi WNW 11.5 mph 16.1 mph N/A   Clear
3:15 PM 50.0 °F - 33.4 °F 53% 29.58 in 10.0 mi WNW 9.2 mph - N/A   Clear
3:35 PM 49.5 °F - 32.9 °F 53% 29.58 in 10.0 mi WNW 10.4 mph - N/A   Clear
3:55 PM 49.1 °F - 32.9 °F 54% 29.58 in 10.0 mi WNW 8.1 mph - N/A   Clear
4:15 PM 48.2 °F - 32.5 °F 55% 29.58 in 10.0 mi West 5.8 mph - N/A   Clear
4:35 PM 44.8 °F 40.4 °F 32.0 °F 61% 29.59 in 10.0 mi WNW 8.1 mph - N/A   Clear
4:55 PM 43.0 °F 40.3 °F 31.8 °F 65% 29.60 in 10.0 mi WNW 4.6 mph - N/A   Clear
5:15 PM 41.9 °F 39.0 °F 31.3 °F 66% 29.61 in 10.0 mi NW 4.6 mph - N/A   Clear
5:35 PM 41.5 °F 38.6 °F 30.7 °F 65% 29.62 in 10.0 mi WNW 4.6 mph - N/A   Clear
5:55 PM 36.7 °F 34.1 °F 29.7 °F 76% 29.62 in 10.0 mi SW 3.5 mph - N/A   Clear
6:15 PM 35.6 °F 31.7 °F 30.2 °F 81% 29.62 in 10.0 mi SSW 4.6 mph - N/A   Scattered Clouds
6:35 PM 35.4 °F 29.0 °F 30.9 °F 84% 29.61 in 10.0 mi SSW 8.1 mph - N/A   Scattered Clouds
6:55 PM 36.0 °F 28.5 °F 30.9 °F 82% 29.60 in 10.0 mi SSW 10.4 mph - N/A   Clear
7:15 PM 37.0 °F 30.4 °F 31.3 °F 80% 29.61 in 10.0 mi SW 9.2 mph - N/A   Clear
7:35 PM 37.9 °F 30.9 °F 31.6 °F 78% 29.61 in 10.0 mi SW 10.4 mph - N/A   Scattered Clouds
7:55 PM 42.8 °F 37.0 °F 31.6 °F 65% 29.62 in 10.0 mi SW 10.4 mph - N/A   Clear
8:15 PM 43.3 °F 36.5 °F 31.1 °F 62% 29.63 in 10.0 mi WSW 13.8 mph - N/A   Clear
8:35 PM 44.8 °F 38.0 °F 30.9 °F 58% 29.65 in 10.0 mi West 15.0 mph 20.7 mph N/A   Scattered Clouds
8:55 PM 35.8 °F 22.1 °F 28.2 °F 74% 29.73 in 10.0 mi NNW 33.4 mph 47.2 mph N/A   Unknown
9:15 PM 31.8 °F 16.3 °F 24.6 °F 75% 29.78 in 10.0 mi NNW 35.7 mph 48.3 mph N/A   Mostly Cloudy
9:35 PM 30.2 °F 14.9 °F 22.3 °F 72% 29.81 in 10.0 mi NNW 31.1 mph 44.9 mph N/A   Mostly Cloudy
9:55 PM 29.8 °F 13.8 °F 19.4 °F 65% 29.83 in 10.0 mi NNW 34.5 mph 40.3 mph N/A   Scattered Clouds
10:15 PM 27.5 °F 11.5 °F 20.3 °F 74% 29.86 in 10.0 mi NNW 29.9 mph 40.3 mph N/A   Mostly Cloudy
10:35 PM 25.7 °F 9.1 °F 19.0 °F 76% 29.91 in 10.0 mi NNW 29.9 mph 36.8 mph N/A   Overcast
10:55 PM 23.7 °F 6.7 °F 13.3 °F 64% 29.94 in 10.0 mi NNW 28.8 mph 40.3 mph N/A   Overcast
11:15 PM 21.4 °F 1.4 °F 8.2 °F 57% 29.96 in 10.0 mi NW 38.0 mph 44.9 mph N/A   Mostly Cloudy
11:35 PM 20.3 °F 0.7 °F 7.0 °F 56% 29.98 in 10.0 mi NW 34.5 mph 41.4 mph N/A   Mostly Cloudy
11:55 PM 19.4 °F 0.8 °F 4.3 °F 52% 30.00 in 10.0 mi NW 28.8 mph 40.3 mph N/A   Mostly Cloudy